Content
SEND FEEDBACK

Daily
Averages
Monthly
Summary
United States of America

WEST SEDONA, ARIZONA


Home > North America > United States > Arizona
Elevation: 1311 meters     Latitude: 34 52N     Longitude: 111 46W

WEATHER
 
SELECT A DAY
Number of Records: 136,143;   Date Range: 1/4/95 - 9/29/14
 
SHARE

PRINT THIS DATA

[ ← Previous Day ]
WEATHER ALMANAC - 31 JANUARY, 2013
[ Next Day → ]
[ °F ]   °C
Weather ElementAverageHighLow
Temperature8.6 °C16 °C (4:35 pm)3 °C (1:35 am)
Dewpoint-1.4 °C1 °C (10:55 am)-3 °C (6:35 pm)
Humidity51.6 %70 % (1:35 am)31 % (3:35 pm)
Barometer1024 hPa1025.4 hPa (2:15 am)1022.4 hPa (5:15 pm)
Wind Speed10.9 km/h25.9 km/h (11:35 pm)
Wind Gust38.9 km/h (11:55 pm)
Weather ElementAverage
Visibility16.1 km
Wind DirectionENE (64.9 °)

Weather ElementTotal
Precipitation---
Heating Degree Days8.8 (Base 18.3)
Averaged from 69 records on 31 January, 2013
WEATHER CONDITIONS BREAKOUT
WIND DIRECTION BREAKOUT
WEATHER BY HOUR - 31 JANUARY, 2013
[ °F ]   °C
Local TimeTemperatureDewpointHumidityBarometerVisibilityWind DirectionWind SpeedGust SpeedPrecipitationEventsConditions
12:35 AM5 °C-2 °C61 %1024.4 hPa16.1 kmNE (50°)13 km/hClear
12:55 AM5 °C-2 °C61 %1024.4 hPa16.1 kmENE (60°)14.8 km/hClear
1:15 AM5 °C-2 °C61 %1024.4 hPa16.1 kmENE (60°)9.3 km/hClear
1:35 AM3 °C-2 °C70 %1024.7 hPa16.1 kmCalmClear
1:55 AM5 °C-1 °C65 %1025.1 hPa16.1 kmSouth (170°)5.6 km/hClear
2:15 AM4 °C-1 °C70 %1025.4 hPa16.1 kmCalmClear
2:35 AM4 °C-1 °C70 %1025.4 hPa16.1 kmCalmClear
2:55 AM3 °C-2 °C70 %1025.4 hPa16.1 kmNE (40°)9.3 km/hClear
3:15 AM3 °C-2 °C70 %1025.4 hPa16.1 kmNE (50°)11.1 km/hClear
3:35 AM4 °C-2 °C65 %1025.1 hPa16.1 kmNE (50°)16.7 km/hClear
3:55 AM4 °C-2 °C65 %1024.7 hPa16.1 kmNE (40°)18.5 km/hClear
4:15 AM4 °C-2 °C65 %1024.7 hPa16.1 kmNE (50°)16.7 km/hClear
4:35 AM3 °C-2 °C70 %1024.7 hPa16.1 kmNE (40°)18.5 km/hClear
4:55 AM4 °C-2 °C65 %1024.7 hPa16.1 kmNE (50°)16.7 km/hClear
5:15 AM3 °C-2 °C70 %1024.4 hPa16.1 kmNE (40°)14.8 km/hClear
5:35 AM3 °C-2 °C70 %1024.4 hPa16.1 kmNE (50°)14.8 km/hClear
5:55 AM4 °C-2 °C65 %1024.7 hPa16.1 kmENE (60°)13 km/hClear
6:15 AM3 °C-2 °C70 %1024.4 hPa16.1 kmENE (60°)13 km/hClear
6:55 AM3 °C-2 °C70 %1024.4 hPa16.1 kmNE (40°)14.8 km/hClear
7:15 AM4 °C-2 °C65 %1024.4 hPa16.1 kmNE (50°)20.4 km/hClear
7:35 AM4 °C-2 °C65 %1024.4 hPa16.1 kmENE (60°)18.5 km/hClear
7:55 AM3 °C-2 °C70 %1024.7 hPa16.1 kmNE (50°)14.8 km/hClear
8:15 AM5 °C-2 °C61 %1024.7 hPa16.1 kmENE (60°)13 km/hClear
8:35 AM6 °C-2 °C57 %1024.7 hPa16.1 kmENE (70°)9.3 km/hClear
8:55 AM5 °C-2 °C61 %1025.1 hPa16.1 kmCalmClear
9:15 AM7 °C-2 °C53 %1024.7 hPa16.1 kmEast (100°)11.1 km/hClear
9:35 AM7 °C0 °C61 %1025.1 hPa16.1 kmCalmClear
9:55 AM8 °C0 °C57 %1025.1 hPa16.1 kmCalmClear
10:15 AM8 °C0 °C57 %1025.1 hPa16.1 kmCalmClear
10:35 AM8 °C-1 °C53 %1024.7 hPa16.1 kmCalmClear
10:55 AM10 °C1 °C54 %1024.7 hPa16.1 kmSouth (180°)7.4 km/hClear
11:15 AM11 °C0 °C47 %1024.7 hPa16.1 kmWSW (240°)5.6 km/hClear
11:35 AM11 °C0 °C47 %1024.7 hPa16.1 kmSouth (180°)5.6 km/hClear
11:55 AM12 °C0 °C44 %1025.1 hPa16.1 kmWSW (250°)5.6 km/hClear
12:15 PM13 °C0 °C41 %1024.7 hPa16.1 kmSSW (200°)9.3 km/hClear
12:35 PM13 °C0 °C41 %1025.1 hPa16.1 kmSouth (180°)7.4 km/hClear
12:55 PM13 °C-1 °C38 %1025.1 hPa16.1 kmSouth (170°)7.4 km/hClear
1:15 PM14 °C0 °C38 %1024.7 hPa16.1 kmSouth (190°)7.4 km/hClear
1:35 PM15 °C0 °C36 %1024.7 hPa16.1 kmSSW (200°)9.3 km/hClear
1:55 PM14 °C1 °C41 %1024.4 hPa16.1 kmCalmClear
2:15 PM15 °C0 °C36 %1024.4 hPa16.1 kmWNW (300°)9.3 km/hClear
2:35 PM13 °C-1 °C38 %1024 hPa16.1 kmCalmClear
2:55 PM14 °C-1 °C36 %1023.7 hPa16.1 kmWSW (250°)5.6 km/hClear
3:15 PM15 °C-1 °C34 %1023.4 hPa16.1 kmCalmClear
3:35 PM15 °C-2 °C31 %1023.4 hPa16.1 kmCalmClear
3:55 PM15 °C-1 °C34 %1023 hPa16.1 kmCalmClear
4:15 PM15 °C-1 °C34 %1023 hPa16.1 kmCalmClear
4:35 PM16 °C-1 °C31 %1023 hPa16.1 kmCalmClear
4:55 PM15 °C-1 °C34 %1023 hPa16.1 kmCalmClear
5:15 PM15 °C-1 °C34 %1022.4 hPa16.1 kmCalmClear
5:35 PM14 °C-1 °C36 %1022.4 hPa16.1 kmCalmClear
5:55 PM13 °C-2 °C36 %1022.4 hPa16.1 kmCalmClear
6:15 PM13 °C-2 °C36 %1022.4 hPa16.1 kmCalmClear
6:35 PM12 °C-3 °C35 %1022.7 hPa16.1 kmNE (50°)20.4 km/hClear
6:55 PM11 °C-3 °C38 %1023 hPa16.1 kmENE (60°)18.5 km/hClear
7:15 PM11 °C-2 °C41 %1023 hPa16.1 kmENE (60°)22.2 km/hClear
7:35 PM10 °C-3 °C40 %1023 hPa16.1 kmNE (50°)18.5 km/hClear
7:55 PM10 °C-2 °C43 %1023 hPa16.1 kmNE (50°)24.1 km/hClear
8:15 PM9 °C-2 °C46 %1023.4 hPa16.1 kmENE (60°)22.2 km/hClear
8:35 PM9 °C-2 °C46 %1023.7 hPa16.1 kmENE (60°)20.4 km/hClear
8:55 PM8 °C-2 °C50 %1023.7 hPa16.1 kmENE (60°)24.1 km/hClear
9:15 PM8 °C-2 °C50 %1024 hPa16.1 kmENE (60°)24.1 km/h31.5 km/hClear
9:35 PM8 °C-2 °C50 %1023.7 hPa16.1 kmNE (50°)24.1 km/h33.3 km/hClear
9:55 PM8 °C-2 °C50 %1024 hPa16.1 kmNE (50°)22.2 km/h35.2 km/hClear
10:15 PM8 °C-2 °C50 %1023.7 hPa16.1 kmNE (50°)24.1 km/h35.2 km/hClear
10:35 PM8 °C-2 °C50 %1023.7 hPa16.1 kmNE (50°)24.1 km/hClear
11:15 PM7 °C-2 °C53 %1023.7 hPa16.1 kmNE (40°)22.2 km/hClear
11:35 PM7 °C-2 °C53 %1023.7 hPa16.1 kmNE (40°)25.9 km/h35.2 km/hClear
11:55 PM7 °C-2 °C53 %1023.7 hPa16.1 kmNE (50°)25.9 km/h38.9 km/hClear
Hourly data recorded from KSEZ, located 0 kilometers away from West Sedona, Arizona







STORIES FROM OUR PARTNERS